Location: ????????
(55.8351°N, 38.7040°E)
Time: 06:41:35
(UTC+00:00)

Cosmos 1536 - Pass Details

Date: 14 April 2024
Orbit: 514 x 542 km, 82.6° (Epoch: 22 May)

Event Time Altitude Azimuth Distance (km) Brightness Sun altitude
Rises 00:28:38 0° 343° (NNW) 2,685 6.7 -14.4°
Reaches altitude 10° 00:30:53 10° 336° (NNW) 1,784 5.7 -14.2°
Maximum altitude 00:34:32 39° 267° (W) 795 3.2 -13.8°
Enters shadow 00:36:31 22° 211° (SSW) 1,171 3.9 -13.6°
